Weather History for MMUN - September, 2013

Change the Weather History Date:

Thursday, September 19, 2013

  Actual Average Record
Temperature  
Mean Temperature 84 °F -  
Max Temperature 87 °F 89 °F 93 °F (2002)
Min Temperature 80 °F 73 °F 69 °F (2007)
Cooling Degree Days 18    
Growing Degree Days 34 (Base 50)    
Moisture  
Dew Point 78 °F    
Average Humidity 85    
Maximum Humidity 94    
Minimum Humidity 74    
Precipitation  
Precipitation 0.00 in - - ()
Sea Level Pressure  
Sea Level Pressure 29.89 in    
Wind  
Wind Speed 11 mph ()    
Max Wind Speed 20 mph    
Max Gust Speed -    
Visibility 6.8 miles    
Events Rain    
Averages and records for this station are not official NWS values.
T = Trace of Precipitation, MM = Missing Value Source: Averaged Metar Reports

Daily Weather History Graph

Daily Weather History Graph

Search for Another Location

Airport or City:

Trip Planner

Search our weather history database for the weather conditions in past years. The results will help you decide how hot, cold, wet, or windy it might be!

Date:

Astronomy

Sep. 19, 2013 Rise Set
Actual Time 6:35 AM CDT 6:46 PM CDT
Civil Twilight 6:13 AM CDT 7:08 PM CDT
Nautical Twilight 5:47 AM CDT 7:34 PM CDT
Astronomical Twilight 5:21 AM CDT 8:00 PM CDT
Moon 6:54 PM CDT (9/19) 6:37 AM CDT (9/19)
Length of Visible Light 12h 55m
Length of Day
12h 10m
Full, 100% of the Moon is Illuminated
Sep 19
Full
Sep 26
Last Quarter
Oct 4
New
Oct 11
First Quarter
Oct 18
Full

Hourly Weather History & Observations

Time (CDT) Temp. Heat Index Dew Point Humidity Pressure Visibility Wind Dir Wind Speed Gust Speed Precip Events Conditions
12:45 AM 80.6 °F 87.1 °F 77.0 °F 89% 29.87 in 7.0 mi East 11.5 mph - N/A   Overcast
1:44 AM 80.6 °F 87.1 °F 77.0 °F 89% 29.88 in 7.0 mi ESE 15.0 mph - N/A   Overcast
2:43 AM 80.6 °F 87.1 °F 77.0 °F 89% 29.86 in 7.0 mi ESE 9.2 mph - N/A   Overcast
3:46 AM 80.6 °F 87.1 °F 77.0 °F 89% 29.83 in 7.0 mi ESE 11.5 mph - N/A   Overcast
4:45 AM 80.6 °F 87.1 °F 77.0 °F 89% 29.86 in 7.0 mi ESE 11.5 mph - N/A   Overcast
5:44 AM 80.6 °F 87.1 °F 77.0 °F 89% 29.87 in 7.0 mi East 16.1 mph - N/A   Overcast
6:43 AM 82.4 °F 90.9 °F 77.0 °F 84% 29.86 in 7.0 mi SE 15.0 mph - N/A   Mostly Cloudy
7:53 AM 82.4 °F 90.9 °F 77.0 °F 84% 29.90 in 7.0 mi ESE 10.4 mph - N/A   Mostly Cloudy
8:43 AM 84.2 °F 94.1 °F 77.0 °F 79% 29.91 in 7.0 mi East 12.7 mph - N/A   Mostly Cloudy
9:45 AM 86.0 °F 99.3 °F 78.8 °F 79% 29.93 in 7.0 mi ESE 19.6 mph - N/A   Mostly Cloudy
10:43 AM 86.0 °F 99.3 °F 78.8 °F 79% 29.93 in 7.0 mi SE 16.1 mph - N/A   Mostly Cloudy
11:41 AM 86.0 °F 96.9 °F 77.0 °F 74% 29.94 in 7.0 mi SE 17.3 mph - N/A   Mostly Cloudy
12:45 PM 87.8 °F 102.5 °F 78.8 °F 75% 29.92 in 7.0 mi ESE 17.3 mph - N/A   Mostly Cloudy
1:42 PM 86.0 °F 99.3 °F 78.8 °F 79% 29.90 in 7.0 mi ESE 13.8 mph - N/A   Mostly Cloudy
2:43 PM 86.0 °F 99.3 °F 78.8 °F 79% 29.89 in 7.0 mi ESE 16.1 mph - N/A   Mostly Cloudy
3:42 PM 86.0 °F 99.3 °F 78.8 °F 79% 29.88 in 6.0 mi ESE 16.1 mph - N/A   Mostly Cloudy
4:40 PM 84.2 °F 96.1 °F 78.8 °F 84% 29.87 in 5.0 mi ESE 13.8 mph - N/A   Mostly Cloudy
5:43 PM 84.2 °F 96.1 °F 78.8 °F 84% 29.88 in 6.0 mi ESE 6.9 mph - N/A   Mostly Cloudy
6:42 PM 82.4 °F 92.4 °F 78.8 °F 89% 29.88 in 7.0 mi ESE 11.5 mph - N/A   Mostly Cloudy
7:41 PM 82.4 °F 92.4 °F 78.8 °F 89% 29.90 in 7.0 mi East 9.2 mph - N/A   Mostly Cloudy
8:40 PM 82.4 °F 92.4 °F 78.8 °F 89% 29.91 in 7.0 mi ESE 10.4 mph - N/A   Mostly Cloudy
9:49 PM 82.4 °F 92.4 °F 78.8 °F 89% 29.91 in 7.0 mi ESE 8.1 mph - N/A   Mostly Cloudy
10:45 PM 82.4 °F 92.4 °F 78.8 °F 89% 29.93 in 7.0 mi ESE 11.5 mph - N/A   Mostly Cloudy
11:22 PM 82.4 °F 92.4 °F 78.8 °F 89% 2.99 in 5.0 mi ESE 8.1 mph - N/A Rain Rain
11:40 PM 80.6 °F 88.1 °F 78.8 °F 94% 29.92 in 7.0 mi ESE 9.2 mph - N/A   Mostly Cloudy